Location: Columbia
(38.9520°N, 92.3340°W)
Time: 05:16:08
(UTC-05:00)

Tiangong 1 - Visible Passes

Search period start: 26 July 2016 00:00
Search period end: 05 August 2016 00:00
Orbit: 365 x 386 km, 42.8° (Epoch: 25 July)

Date Brightness Start Highest point End Pass type
(mag) Time Alt. Az. Time Alt. Az. Time Alt. Az.
02 Aug 2.5 05:14:28 13° SSW 05:16:39 27° SSE 05:19:18 10° E visible
03 Aug 3.5 04:14:45 13° SE 04:14:45 13° SE 04:15:54 10° ESE visible
04 Aug 1.6 04:46:58 34° SSW 04:47:46 43° SSE 04:50:42 10° E visible
